Location: Moscow
(38.8570°N, 84.2291°W)
Time: 20:15:52
(UTC+00:00)

UKube-1 - Pass Details

Date: 13 March 2026
Orbit: 527 x 530 km, 98.4° (Epoch: 11 April)

Event Time Altitude Azimuth Distance (km) Brightness Sun altitude
Rises 09:57:40 0° 33° (NNE) 2,670 ? -22.7°
Reaches altitude 10° 10:00:30 10° 56° (ENE) 1,774 ? -22.2°
Maximum altitude 10:02:51 16° 94° (E) 1,449 ? -21.8°
Drops below altitude 10° 10:05:10 10° 132° (SE) 1,764 ? -21.3°
Sets 10:07:58 0° 155° (SSE) 2,647 ? -20.8°
